Location: Theodore Roosevelt National Park
(46.9990°N, 103.4631°W)
Time: 10:48:05
(UTC-07:00)

Iridium 37 - Visible Passes

Search period start: 24 November 2014 00:00
Search period end: 04 December 2014 00:00
Orbit: 776 x 779 km, 86.4° (Epoch: 23 November)

Date Brightness Start Highest point End Pass type
(mag) Time Alt. Az. Time Alt. Az. Time Alt. Az.
24 Nov 7.2 05:52:08 10° NNE 05:56:55 35° ENE 06:01:40 10° SE visible
25 Nov 8.0 05:19:11 10° NNE 05:23:07 21° ENE 05:27:02 10° ESE visible
25 Nov 7.7 18:18:47 10° SSE 18:18:54 11° SSE 18:18:54 11° SSE visible
26 Nov 8.5 04:47:01 10° NE 04:49:10 12° ENE 04:51:18 10° E visible
26 Nov 5.6 06:25:29 10° N 06:30:44 86° E 06:35:57 10° S visible
26 Nov 7.5 17:46:19 10° SE 17:46:49 12° SE 17:46:49 12° SE visible
26 Nov 7.4 19:25:35 10° SSW 19:27:23 21° SSW 19:27:23 21° SSW visible
27 Nov 6.5 05:52:04 10° N 05:57:08 49° E 06:02:10 10° SSE visible
27 Nov 6.1 18:51:50 10° S 18:55:23 45° S 18:55:23 45° S visible
28 Nov 7.5 05:18:54 10° NNE 05:23:25 29° ENE 05:27:54 10° SE visible
28 Nov 5.5 18:18:32 10° SSE 18:23:28 53° E 18:23:28 53° E visible
28 Nov 7.8 20:00:41 10° WSW 20:04:03 21° W 20:04:03 21° W visible
29 Nov 8.2 04:46:08 10° NNE 04:49:33 17° ENE 04:52:56 10° ESE visible
29 Nov 5.5 06:25:38 10° N 06:30:50 68° W 06:35:59 10° S visible
29 Nov 6.2 17:45:43 10° SE 17:50:13 31° E 17:51:39 27° NE visible
29 Nov 6.9 19:26:04 10° SW 19:30:51 36° WNW 19:32:15 31° NW visible
30 Nov 5.9 05:52:05 10° N 05:57:18 70° E 06:02:29 10° S visible
30 Nov 6.8 17:13:33 10° ESE 17:17:00 18° ENE 17:20:01 12° NE visible
30 Nov 5.9 18:52:01 10° SSW 18:57:10 63° W 19:00:37 21° N visible
01 Dec 6.9 05:18:45 10° N 05:23:40 40° E 05:28:32 10° SSE visible
01 Dec 7.3 16:43:22 10° ENE 16:43:54 10° ENE 16:44:25 10° ENE visible
01 Dec 5.4 18:18:27 10° S 18:23:38 75° E 18:28:51 10° N visible
01 Dec 8.2 20:01:53 10° WSW 20:04:59 16° WNW 20:08:07 10° NNW visible
02 Dec 7.8 04:45:43 10° NNE 04:49:53 24° ENE 04:54:01 10° SE visible
02 Dec 5.8 06:25:52 10° NNW 06:30:53 48° W 06:35:52 10° SSW visible
02 Dec 5.8 17:45:20 10° SSE 17:50:13 43° E 17:55:07 10° NNE visible
02 Dec 7.5 19:26:45 10° SW 19:31:06 26° WNW 19:35:29 10° NNW visible
03 Dec 8.4 04:13:17 10° NE 04:15:58 14° ENE 04:18:38 10° E visible
03 Dec 5.5 05:52:11 10° N 05:57:26 85° W 06:02:38 10° S visible
03 Dec 6.5 17:12:44 10° SE 17:16:55 25° E 17:21:06 10° NNE visible
03 Dec 6.5 18:52:23 10° SSW 18:57:21 45° W 19:02:22 10° N visible
